User: anonymous   Login
Location: Bucharest
(44.4268°N, 26.1025°E)
Time: 14:48:52
(UTC+02:00)
Language:

COSMOS 2251 DEB - Orbit

View from above orbital plane
View from above orbital plane
View from above satellite
View from above satellite

Ground track
Ground track

The orbit data is extracted from the following two-line orbital elements,

1 38221U 93036BTM 22337.16611917  .00016365  00000-0  21036-2 0  9991
2 38221  74.0030 145.1177 0066198 154.8757 205.5665 14.79597928487082
Epoch (UTC): 03 December 2022 03:59:12
Eccentricity: 0.0066198
inclination: 74.0030°
perigee height: 584 km
apogee height: 677 km
right ascension of ascending node: 145.1177°
argument of perigee: 154.8757°
revolutions per day: 14.79597928
mean anomaly at epoch: 205.5665°
orbit number at epoch: 48708

The dashed part of the orbit path shows where the satellite is in the earth's shadow,  

DLR